Home   Weather   Achern   Past weeks

Flag for Germany Past Weather in Achern, Baden-Württemberg, Germany — Yesterday and Last 2 Weeks

Now
50 °F

Partly sunny.


Feels Like: 48 °F
Forecast: 32 / 62 °F
Wind: 6 mph from Northeast

Location: Karlsruhe - Baden Wurttemberg

Current Time: Apr 23, 2017 at 2:03:57 pm

Latest Report: Apr 23, 2017 at 1:20 pm


Visibility: N/A

Pressure: 30.27 "Hg

Humidity: 47%

Dew Point: 30 °F

Location of AchernLocation

Past Weather in Achern — Graph

°F

Achern Temperature Yesterday

Maximum temperature yesterday: 57 °F (at 1:20 pm)
Minimum temperature yesterday: 41 °F (at 4:20 am)
Average temperature yesterday: 48 °F

High & Low Weather Summary for the Past Weeks

 TemperatureHumidityPressure
High77 °F (Apr 10, 2:20 pm)100% (Apr 9, 4:50 am)30.60 "Hg (Apr 9, 4:50 am)
Low27 °F (Apr 20, 5:50 am)25% (Apr 21, 3:20 pm)29.95 "Hg (Apr 12, 6:50 pm)
Average51 °F65%30.20 "Hg
* Reported Apr 8 12:20 pm — Apr 23 12:50 pm, Achern, Weather by CustomWeather, © 2017

Note: Actual official high and low records may vary slightly from our data, if they occured in-between our weather recording intervals... More about our weather records

Advertising

Achern Weather History for the Previous 24 Hours

Scroll right to see more
 ConditionsComfort  
Time TempWeatherWind HumidityBarometerVisibility
12:50 pm
Sun, Apr 23
50 °FPartly sunny.3 mph47%30.27 "HgN/A
12:20 pm48 °FPartly sunny.3 mph50%30.30 "HgN/A
11:50 am48 °FScattered clouds.3 mph50%30.30 "HgN/A
11:20 am46 °FScattered clouds.5 mph53%30.30 "HgN/A
10:50 am46 °FScattered clouds.5 mph57%30.30 "HgN/A
10:20 am46 °FScattered clouds.6 mph57%30.30 "HgN/A
9:50 am46 °FScattered clouds.5 mph62%30.30 "HgN/A
9:20 am45 °FSunny.6 mph71%30.30 "Hg10 mi
8:50 am45 °FSunny.5 mph71%30.30 "Hg10 mi
8:20 am43 °FSunny.3 mph81%30.30 "Hg10 mi
7:50 am41 °FSunny.3 mph81%30.27 "Hg10 mi
7:20 am39 °FSunny.1 mph93%30.27 "Hg10 mi
6:50 am39 °FSunny.2 mph93%30.27 "Hg10 mi
6:20 am39 °FClear.1 mph93%30.27 "Hg10 mi
5:50 am39 °FPassing clouds.No wind100%30.24 "Hg6 mi
5:20 am39 °FPartly cloudy.No wind100%30.24 "Hg6 mi
4:50 am41 °FPassing clouds.2 mph93%30.24 "HgN/A
10:50 pm
Sat, Apr 22
43 °FPartly cloudy.3 mph93%30.24 "HgN/A
10:20 pm45 °FPartly cloudy.2 mph93%30.24 "HgN/A
9:50 pm46 °FPartly cloudy.1 mph87%30.24 "HgN/A
9:20 pm46 °FPartly cloudy.2 mph87%30.24 "HgN/A
8:20 pm46 °FScattered showers. Partly sunny.1 mph87%30.21 "HgN/A
7:50 pm48 °FSprinkles. Broken clouds.5 mph82%30.21 "HgN/A
7:20 pm48 °FPartly sunny.2 mph76%30.21 "HgN/A
6:50 pm48 °FScattered showers. Broken clouds.6 mph82%30.21 "HgN/A
6:20 pm48 °FSprinkles. Broken clouds.8 mph76%30.21 "HgN/A
5:50 pm50 °FSprinkles. Broken clouds.9 mph76%30.21 "Hg5 mi
5:20 pm50 °FScattered showers. Broken clouds.8 mph76%30.21 "HgN/A
4:50 pm52 °FScattered showers. Broken clouds.10 mph72%30.21 "HgN/A
4:20 pm52 °FScattered showers. Broken clouds.10 mph72%30.21 "HgN/A
4:03 pm55 °FBroken clouds.12 mph63%30.21 "HgN/A
3:20 pm55 °FSprinkles. Broken clouds.8 mph59%30.21 "HgN/A
3:04 pm55 °FSprinkles. Broken clouds.7 mph59%30.21 "HgN/A
Weather by CustomWeather, © 2017

See weather overviewHow to use our weather pages